{"data":{"norad_id":60084,"epoch":"2026-05-25T03:49:56.896320Z","epoch_age_seconds":68072,"freshness":"FRESH","line1":"1 60084U 24114F   26145.15968630  .00000644  00000+0  90667-4 0  9991","line2":"2 60084  97.8927 169.0467 0003484 193.6511 166.4608 14.80578724103988","mean_motion":14.80578724,"eccentricity":0.0003484,"inclination_deg":97.8927,"raan_deg":169.0467,"arg_perigee_deg":193.6511,"mean_anomaly_deg":166.4608,"bstar":9.0667e-5,"rev_number":10398,"period_min":97.259266032787,"perigee_km":625.05721616203,"apogee_km":629.93874261566,"semimajor_km":7005.6349793888,"source":"CELESTRAK","updated_at":"2026-05-25T13:38:01.827519Z"}}